Location: Fienile Résega
(44.9167°N, 10.9000°E)
Time: 15:26:04
(UTC+00:00)

Daily predictions for brighter satellites

Satellite Brightness Start Highest point End
(mag) Time Altitude Azimuth Time Altitude Azimuth Time Altitude Azimuth
CENTAUR R/B 4.2 19:18:03 10° NW 19:25:55 45° WSW 19:34:19 10° S
COBE Rocket 4.3 19:25:28 10° S 19:30:32 71° W 19:35:31 10° NNW
Cosmos 1184 Rocket 3.6 19:27:58 10° SSE 19:30:36 28° E 19:33:14 10° NNE
Cosmos 968 Rocket 4.2 19:29:12 10° SW 19:34:16 59° WNW 19:39:21 10° NNE
Cosmos 1151 Rocket 4.1 19:32:58 10° SSW 19:37:05 48° WNW 19:41:14 10° N
Meteor 1-10 Rocket 4.3 19:31:43 10° S 19:37:16 84° WNW 19:42:56 10° N
Cosmos 405 3.0 19:34:52 10° NNW 19:38:17 81° W 19:41:42 10° S
Cosmos 389 Rocket 2.9 19:35:38 10° N 19:39:02 46° ENE 19:42:26 10° SSE
Cosmos 1933 Rocket 3.9 19:37:11 10° N 19:41:33 49° ENE 19:45:51 10° SSE
EXPRESS MD2 3.7 19:36:12 10° WNW 19:42:57 87° SSW 19:46:11 11° ESE
Cosmos 1515 3.6 19:40:13 10° S 19:43:57 70° E 19:47:43 10° NNE
SPOT 1/Viking Rocket 3.6 19:40:24 10° SSE 19:45:32 71° ENE 19:50:41 10° N
CZ-4B R/B 1.1 19:42:26 10° NNE 19:45:38 80° ESE 19:48:46 10° S
Helios 1A Rocket 4.2 19:42:53 11° ESE 19:46:06 25° ENE 19:49:25 10° N
Meteor 1-27 Rocket 3.8 19:40:53 10° S 19:46:38 74° E 19:52:31 10° NNE
Cosmos 2034 Rocket 4.3 19:45:34 10° SSE 19:51:33 49° E 19:57:37 10° NNE
Cosmos 1633 Rocket 4.1 19:47:37 10° NNW 19:51:48 45° W 19:55:55 10° SSW
Cosmos 2219 3.6 19:47:35 10° NNW 19:53:08 61° WSW 19:58:39 10° S
SJ 16-02 2.0 19:49:30 10° SSE 19:53:29 35° ESE 19:57:29 10° NE
Cosmos 2278 4.3 19:48:50 10° S 19:53:54 35° ESE 19:59:02 10° NE
Cosmos 1340 2.5 19:50:35 10° S 19:54:18 81° E 19:58:03 10° NNE
OE (NEXTSAT) 4.1 19:51:18 10° WSW 19:54:34 65° SSE 19:57:51 10° E
Cosmos 2082 3.7 19:54:21 10° NNW 20:00:01 81° ENE 20:04:59 14° SSE
Meteor 1-11 Rocket 4.2 19:55:02 10° NNW 20:00:59 68° W 20:06:50 10° S
Cosmos 2263 Rocket 2.8 19:57:44 10° NNW 20:03:07 45° ENE 20:07:29 15° SE
Cosmos 1470 Rocket 4.1 19:58:57 10° NNW 20:03:12 58° W 20:07:26 10° S
Ariane Rocket 3.1 20:00:20 10° SSE 20:05:24 82° WSW 20:10:32 10° NNW
Cosmos 1743 2.8 20:02:40 10° NNW 20:06:27 72° W 20:10:11 10° S
NOSS 2-1 (D) 4.5 20:09:53 17° ESE 20:09:53 17° ESE 20:11:41 10° ENE
SPOT 5 3.6 20:06:30 15° SE 20:10:33 44° ENE 20:15:25 10° N
BREEZE-M DEB (TANK) 3.6 20:09:18 10° W 20:11:44 31° NNW 20:13:46 10° ENE
Terra 2.9 20:09:04 15° ESE 20:12:14 30° ENE 20:16:22 10° N
IRAS Rocket 4.5 20:06:41 10° NNE 20:12:19 78° WNW 20:17:56 10° SSW
Resurs 01 Rocket 2.5 20:09:59 10° S 20:14:14 48° W 20:18:31 10° NNW
Cosmos 1346 Rocket 4.3 20:15:00 18° ESE 20:16:22 21° E 20:19:24 10° NE
Aureole 1 Rocket 3.6 20:13:30 10° SW 20:16:33 39° WNW 20:19:23 10° N
Cosmos 1515 Rocket 4.3 20:12:48 10° SSW 20:17:04 54° WNW 20:21:24 10° N
Cosmos 1809 Rocket 4.4 20:13:05 10° N 20:19:15 85° E 20:24:46 13° S
Cosmos 2227 Rocket 3.6 20:15:55 10° NW 20:20:56 33° WSW 20:25:55 10° SSW
Cosmos 921 Rocket 3.2 20:17:43 10° NNW 20:22:15 77° WSW 20:25:38 17° S
Cosmos 783 Rocket 4.5 20:22:45 10° NNW 20:27:58 84° ENE 20:31:34 20° SSE
Cosmos 1980 Rocket 2.4 20:23:44 10° SSW 20:29:21 77° WNW 20:35:04 10° NNE
CARTOSAT-1 3.7 20:26:14 16° S 20:29:39 71° W 20:33:58 10° NNW
Cosmos 1869 Rocket 3.5 20:27:06 10° N 20:31:36 80° E 20:34:33 21° SSE
SL-24 R/B - RUBIN 2 4.3 20:27:39 10° NNW 20:31:52 44° NE 20:34:40 20° ESE
Cosmos 2228 Rocket 3.1 20:29:01 16° S 20:32:40 70° E 20:37:13 10° NNE
Cosmos 1378 3.2 20:34:32 27° SSE 20:36:16 53° E 20:39:51 10° NNE
Cosmos 2344 3.7 20:30:19 10° SW 20:37:50 77° NW 20:45:33 10° NE
Cosmos 2322 Rocket 3.3 20:36:17 21° SE 20:38:03 25° ESE 20:42:33 10° NE
Cosmos 1777 Rocket 3.9 20:33:20 10° SSW 20:38:32 75° ESE 20:43:47 10° NNE
Spot 2 Rocket 3.4 20:35:42 21° SSE 20:39:05 82° ENE 20:44:09 10° NNW
Cosmos 2369 4.4 20:33:34 10° SW 20:39:07 57° WNW 20:44:43 10° NNE
Cosmos 1354 Rocket 4.3 20:34:33 10° SSW 20:39:48 69° WNW 20:45:07 10° NNE
ISS -3.5 20:36:30 10° WNW 20:39:51 64° NNE 20:41:27 27° E
SPOT 3 Rocket 3.8 20:36:10 16° S 20:40:18 64° WSW 20:45:26 10° NNW
Cosmos 773 Rocket 4.1 20:36:45 10° NNW 20:41:59 76° WSW 20:45:19 22° S
Cosmos 1844 Rocket 4.3 20:37:59 10° N 20:42:25 23° NE 20:46:18 12° E
ATLAS 2AS CENTAUR R/B 3.0 20:34:36 10° SSW 20:42:26 86° SE 20:50:03 10° NE
Okean 1 3.8 20:40:11 10° SSW 20:44:03 60° W 20:48:02 10° N
Meteor 2-4 Rocket 3.8 20:40:22 19° S 20:44:27 59° E 20:50:00 10° NNE
Meteor 1-19 Rocket 4.3 20:40:43 10° SSW 20:46:08 73° W 20:51:34 10° N
Cosmos 1092 Rocket 3.9 20:41:45 10° N 20:47:58 82° E 20:52:05 22° SSE
RESURS DK-1 2.5 20:44:08 10° SSW 20:48:14 74° WNW 20:52:23 10° NNE
Nadezhda 4 Rocket 4.5 20:42:36 10° NNW 20:48:42 58° W 20:54:08 13° SSW
SL-4 R/B 3.8 20:47:04 10° W 20:50:33 22° SW 20:52:09 18° SSW
Cosmos 1634 Rocket 4.0 20:49:58 20° S 20:54:26 71° E 21:00:36 10° NNE
ARIANE 5 R/B 2.8 20:53:39 31° SE 20:55:40 62° ENE 21:00:08 10° N
Cosmos 1707 Rocket 3.5 20:54:13 29° S 20:56:23 67° E 21:00:46 10° NNE
ATLAS CENTAUR R/B 3.9 20:54:22 10° N 20:57:49 19° NE 21:01:12 10° E
Cosmos 44 Rocket 3.1 20:54:39 10° NW 20:59:23 84° NE 21:01:28 33° SE
Cosmos 2227 4.2 20:59:14 10° NNW 21:05:02 88° ENE 21:07:59 31° SSE
Cosmos 1733 4.3 21:02:36 10° NNE 21:05:55 28° ENE 21:06:32 27° E
Cosmos 158 Rocket 4.0 21:01:41 10° NNW 21:06:50 78° WSW 21:09:24 31° S
NOSS 2-1 (E) 2.6 21:08:10 56° S 21:08:38 69° SE 21:11:50 10° NE
ATLAS 3B R/B 3.0 21:01:16 10° NW 21:08:38 71° NE 21:13:25 25° SE
CSL-04 DEB 4.4 21:07:50 10° NNE 21:11:47 60° ESE 21:12:49 44° SSE
Cosmos 1975 3.1 21:07:56 10° NNW 21:11:58 64° W 21:13:33 34° SSW
USA 81 4.0 21:09:01 27° S 21:12:00 88° E 21:17:18 10° N
Cosmos 2026 Rocket 4.1 21:07:02 10° N 21:13:13 76° W 21:17:00 25° S
ERS-1 Rocket 3.4 21:12:32 25° S 21:15:18 56° W 21:20:17 10° NNW
SL-16 R/B 2.1 21:13:28 23° SSW 21:17:06 71° ESE 21:22:46 10° NNE
Cosmos 2237 4.4 21:16:27 33° SSE 21:18:40 50° ESE 21:24:11 10° NE
Meteor 1-4 Rocket 3.0 21:16:02 10° N 21:19:21 41° ENE 21:19:35 41° E
CZ-4C R/B 4.4 21:14:14 10° NNW 21:20:07 29° NNE 21:26:55 10° E
Helios 1A Rocket 4.5 21:19:01 18° SW 21:21:05 28° W 21:24:33 10° NW
Cosmos 1538 Rocket 3.9 21:16:58 10° NNW 21:22:14 81° WSW 21:24:18 37° SSE
Gblst 52 Del rocket 4.4 21:16:59 10° SW 21:23:36 57° SE 21:29:25 10° ENE
GENESIS II 4.4 21:20:46 16° SW 21:23:42 69° NW 21:27:38 10° NNE
CZ-2C R/B 4.4 21:19:31 10° N 21:24:11 54° WNW 21:27:47 16° SW
Cosmos 1733 Rocket 3.1 21:21:50 10° N 21:26:18 79° W 21:27:44 42° S
Geosat 4.0 21:28:35 38° SE 21:30:30 75° ENE 21:35:32 10° NNW
OE (NEXTSAT) 4.4 21:28:16 10° W 21:31:35 70° N 21:32:08 55° ENE
SJ 16-02 3.5 21:28:34 10° WSW 21:32:07 24° WNW 21:35:42 10° N
SAR-Lupe-4 3.5 21:29:12 10° NNE 21:32:49 85° WNW 21:33:21 63° SSW
Cosmos 1356 3.5 21:35:10 57° ENE 21:35:10 57° ENE 21:38:06 10° NNE
Cosmos 1908 Rocket 3.9 21:33:41 10° N 21:37:54 48° ENE 21:38:37 43° ESE
Cosmos 1862 Rocket 3.7 21:37:31 37° SSW 21:39:11 70° W 21:43:40 10° N
Cosmos 923 Rocket 4.2 21:35:03 10° NNW 21:40:23 66° ENE 21:42:10 41° SE
Cosmos 2360 Rocket 2.4 21:40:42 41° SSE 21:42:11 53° ESE 21:47:40 10° NE
Cosmos 1937 Rocket 4.1 21:42:39 37° ESE 21:43:17 38° ESE 21:48:09 10° NE
Cosmos 2242 Rocket 4.5 21:43:57 34° E 21:44:17 35° E 21:48:25 10° NNE
Cosmos 1726 3.0 21:41:45 10° N 21:45:10 35° ENE 21:45:10 35° ENE
ALOS 2 4.2 21:44:37 21° E 21:45:44 24° ENE 21:49:15 10° NNE
Meteor 1-13 Rocket 4.1 21:44:29 41° S 21:46:28 74° E 21:52:01 10° NNE
Cosmos 2263 Rocket 3.5 21:42:04 10° NW 21:46:48 29° WSW 21:49:11 21° SW
Cosmos 2266 Rocket 4.1 21:42:53 10° N 21:49:05 64° ENE 21:51:20 39° SE
NOSS 2-1 (C) 4.3 21:46:44 14° WSW 21:49:07 35° NW 21:52:09 10° NNE
Terra 3.1 21:47:57 23° SW 21:49:54 32° W 21:54:11 10° NNW
Cosmos 1441 Rocket 3.5 21:51:04 49° WSW 21:51:41 57° WNW 21:55:21 10° N
Cosmos 1346 Rocket 4.4 21:50:23 19° WSW 21:52:27 31° WNW 21:56:04 10° N
Cosmos 2279 Rocket 4.3 21:53:29 26° SSW 21:57:03 62° W 22:03:15 10° N
Cosmos 990 Rocket 4.1 21:57:54 35° SSW 22:00:11 76° WNW 22:05:27 10° NNE
USA 215 3.3 21:54:07 10° ENE 22:00:33 57° SE 22:03:42 31° SSW
Cosmos 2112 Rocket 4.2 21:55:39 10° NNW 22:00:58 64° ENE 22:02:27 45° SE
Cosmos 1680 Rocket 3.5 21:56:43 10° NNW 22:02:02 75° ENE 22:03:26 50° SE
Cosmos 1842 4.1 22:03:47 37° ENE 22:03:47 37° ENE 22:07:00 10° NNE
Meteor 1-12 Rocket 4.3 22:01:04 10° NNW 22:07:03 87° W 22:08:54 46° S
Cosmos 1066 Rocket 4.5 22:05:06 33° SSW 22:07:44 65° WNW 22:13:23 10° N
ADEOS Rocket 4.0 22:05:31 24° ESE 22:07:55 34° ENE 22:13:15 10° N
Spot 4 4.0 22:07:13 51° SE 22:08:12 64° ENE 22:12:57 10° N
Cosmos 1818 3.7 22:04:57 10° NNW 22:10:26 70° NE 22:12:08 44° ESE
Iridium 4 Rocket 3.2 22:08:13 10° N 22:12:51 85° E 22:13:44 61° S
Cosmos 1898 Rocket 3.5 22:11:50 45° SSW 22:13:31 86° WNW 22:18:53 10° NNE
ISS -1.1 22:13:46 10° W 22:14:21 13° W 22:14:21 13° W
Cosmos 1900 4.3 22:15:19 54° SSW 22:16:29 83° ESE 22:21:38 10° NE
Okean 1-7 3.0 22:17:25 63° SW 22:18:00 74° W 22:22:23 10° N
Cosmos 2322 Rocket 2.9 22:18:02 20° SW 22:21:44 51° WNW 22:27:13 10° NNE
Okean 3 3.3 22:25:02 76° SW 22:25:16 80° W 22:29:32 10° N
Cosmos 2322 4.0 22:25:29 46° SE 22:26:11 48° ESE 22:31:41 10° NE
Cosmos 2333 Rocket 2.2 22:25:18 54° SSE 22:26:25 67° ESE 22:32:04 10° NNE
Cosmos 1844 Rocket 2.7 22:21:15 10° NNW 22:26:47 65° WSW 22:27:56 52° SSW
H-2A R/B 3.3 22:28:18 10° NNE 22:32:20 78° E 22:32:20 78° E
Cosmos 1461 4.1 22:28:58 10° NNW 22:32:51 37° NE 22:33:55 32° E
BREEZE-M DEB (TANK) 3.8 22:30:23 10° W 22:31:52 28° WSW 22:31:52 28° WSW
USA 267 3.7 22:29:45 12° ESE 22:35:42 60° NNE 22:42:08 10° NW
Meteor 1-23 Rocket 4.3 22:34:01 46° SSW 22:35:50 76° W 22:41:42 10° N
ATLAS CENTAUR R/B 1.5 22:32:28 10° NW 22:37:21 87° NE 22:37:50 72° SE
Cosmos 1766 4.2 22:39:50 10° NNW 22:43:23 37° W 22:43:23 37° W
Cosmos 1553 Rocket 4.5 22:43:37 38° SE 22:45:06 45° E 22:50:57 10° NNE
Cosmos 2219 Rocket 2.1 22:44:47 58° S 22:45:46 72° ESE 22:51:22 10° NNE
Cosmos 1844 4.1 22:44:52 10° NW 22:50:28 51° WSW 22:51:27 46° SW
Cosmos 2221 Rocket 4.3 22:51:06 41° E 22:51:06 41° E 22:55:11 10° NNE
Cosmos 372 Rocket 4.0 22:51:17 55° SW 22:52:21 76° WNW 22:57:32 10° NNE
ATLAS 3B R/B 3.9 22:52:41 10° NW 22:58:55 30° WSW 23:00:38 27° SW
Cosmos 1707 2.9 23:00:36 70° N 23:00:36 70° N 23:04:05 10° N
SL-16 R/B 4.3 22:57:26 10° W 23:01:47 22° NW 23:06:10 10° N
NOSS 3-1 (A) 4.3 22:55:35 10° NW 23:03:00 70° NE 23:08:57 22° SE
Cosmos 1125 Rocket 4.4 23:03:17 33° ESE 23:03:32 33° E 23:08:08 10° NE
Cosmos 1782 Rocket 4.5 23:00:43 10° NNW 23:04:44 37° W 23:04:50 36° W
Okean 2 3.5 23:06:39 65° ENE 23:06:39 65° ENE 23:10:26 10° NNE
ERS-2 2.7 23:03:42 10° N 23:06:52 51° NW 23:06:52 51° NW
USA 290 3.9 23:10:46 31° NE 23:10:46 31° NE 23:12:39 10° NNE
CZ-4C R/B 3.0 23:02:20 10° NW 23:09:38 84° NE 23:14:17 30° SE
NOSS 3-1 (C) 4.1 23:02:48 10° NW 23:10:21 75° SW 23:14:02 39° SSE
Cosmos 1238 Rocket 3.9 23:10:07 10° N 23:11:57 31° NNE 23:11:57 31° NNE
Cosmos 2237 Rocket 3.1 23:14:56 32° ESE 23:15:32 33° ESE 23:20:34 10° NE
KORONAS-FOTON 4.1 23:16:49 65° NNE 23:16:49 65° NNE 23:20:07 10° N
COSMOS 2428 2.6 23:17:53 56° SSW 23:19:11 88° WNW 23:24:55 10° NNE
Cosmos 1470 3.9 23:15:58 10° NNW 23:19:01 34° WNW 23:19:01 34° WNW
Cosmos 1726 4.5 23:17:41 10° NW 23:19:26 15° W 23:19:26 15° W
Cosmos 1300 Rocket 4.1 23:16:45 10° NNW 23:20:51 46° W 23:20:51 46° W
ALOS 2 3.5 23:22:00 36° W 23:22:00 36° W 23:25:57 10° NNW
Cosmos 1745 Rocket 4.2 23:16:48 10° N 23:22:58 61° ENE 23:25:01 41° SE
PSLV R/B 3.5 23:19:08 10° NNE 23:23:32 74° ESE 23:23:40 73° ESE
Cosmos 2151 Rocket 3.4 23:19:26 10° N 23:23:51 84° E 23:23:57 83° ESE
Resurs 1-4 Rocket 4.4 23:22:19 10° ENE 23:24:05 12° E 23:25:51 10° ESE
USA 305 3.8 23:26:44 37° E 23:26:44 37° E 23:29:31 10° ENE
Cosmos 2360 Rocket 3.9 23:22:25 13° WSW 23:26:28 28° NW 23:31:18 10° N
Cosmos 1242 Rocket 3.4 23:23:22 10° NNW 23:26:07 46° NW 23:26:07 46° NW
Cosmos 405 Rocket 3.2 23:28:20 52° NE 23:28:20 52° NE 23:31:30 10° NNE
Okean 2 Rocket 3.0 23:23:24 10° NNW 23:27:57 77° W 23:28:05 77° WSW
In-Cosmos 22 4.3 23:29:31 51° SW 23:30:47 66° WNW 23:36:16 10° N
Cosmos 1943 Rocket 4.4 23:26:32 10° N 23:30:51 22° NE 23:35:09 10° E
Cosmos 1437 Rocket 3.2 23:30:09 10° N 23:33:33 52° ENE 23:33:33 52° ENE
Nimbus 7 Rocket 4.3 23:28:44 10° NNE 23:34:39 86° WNW 23:36:12 52° SSW
Cosmos 2298 Rocket 4.0 23:34:33 57° SSE 23:35:16 64° ESE 23:40:32 10° NNE
Cosmos 1867 3.7 23:33:44 46° WSW 23:35:19 71° NW 23:40:49 10° NNE
Cosmos 1908 3.5 23:31:32 10° N 23:34:48 64° NNW 23:34:48 64° NNW
Cosmos 1626 2.6 23:37:36 56° NNW 23:37:36 56° NNW 23:40:43 10° N
GP-B 4.4 23:37:20 10° NNE 23:41:17 30° E 23:42:03 29° ESE
USA 215 3.9 23:37:12 10° NE 23:43:33 54° NNW 23:49:53 10° WSW
Cosmos 1953 2.4 23:40:50 10° N 23:44:46 68° ENE 23:44:46 68° ENE
Cosmos 2278 Rocket 2.2 23:41:19 10° NNW 23:47:02 81° ENE 23:48:51 45° SE
Cosmos 468 4.4 23:43:02 10° NNW 23:48:15 76° WSW 23:49:03 63° S
Cosmos 1674 3.7 23:50:46 36° WNW 23:50:46 36° WNW 23:53:59 10° N
ADEOS Rocket 3.5 23:52:27 35° WSW 23:53:23 38° W 23:58:53 10° NNW
